Leakey, Texas, United States (78873)
Lat: 29.73N, Lon: 99.76W
Wx Zone: TXZ185
Local Info
Past Weather Observations for Friday, July 25, 2014

NOTE: This archive is for the closest National Weather Service station to Leakey. Information may differ from the station used for current weather conditions.

Click here for Long-term Archive

Time Weather Temperature Dewpoint Humidity Pressure Winds Precip Visibility
23:50
Clear
77°F / 25°C 66°F / 19°C 69% 30.09 in
(1019 mb)
SE 11.5 mph
(SE 19 kph)
- 10SM
23:30
Clear
79°F / 26°C 66°F / 19°C 65% 30.09 in
(1019 mb)
SE 8.1 mph
(SE 13 kph)
- 10SM
23:10
Clear
79°F / 26°C 64°F / 18°C 61% 30.09 in
(1019 mb)
SE 12.7 mph
(SE 20 kph)
- 10SM
22:50
Clear
81°F / 27°C 64°F / 18°C 58% 30.09 in
(1019 mb)
SE 10.4 mph
(SE 17 kph)
- 10SM
22:30
Clear
81°F / 27°C 64°F / 18°C 58% 30.06 in
(1018 mb)
SE 9.2 mph
(SE 15 kph)
- 10SM
22:10
Clear
81°F / 27°C 64°F / 18°C 58% 30.06 in
(1018 mb)
SE 13.8 mph
(SE 22 kph)
- 10SM
21:50
Clear
82°F / 28°C 64°F / 18°C 55% 30.06 in
(1018 mb)
SE 10.4 mph
(SE 17 kph)
- 10SM
21:30
Clear
81°F / 27°C 64°F / 18°C 58% 30.06 in
(1018 mb)
SE 5.8 mph
(SE 9 kph)
- 10SM
21:10
Clear
82°F / 28°C 64°F / 18°C 55% 30.06 in
(1018 mb)
SE 6.9 mph
(SE 11 kph)
- 10SM
20:50
Clear
82°F / 28°C 64°F / 18°C 55% 30.06 in
(1018 mb)
Calm - 10SM
20:30
Clear
82°F / 28°C 64°F / 18°C 55% 30.04 in
(1017 mb)
SE 5.8 mph
(SE 9 kph)
- 10SM
20:10
Clear
84°F / 29°C 64°F / 18°C 51% 30.04 in
(1017 mb)
SE 8.1 mph
(SE 13 kph)
- 10SM
19:50
Clear
84°F / 29°C 64°F / 18°C 51% 30.04 in
(1017 mb)
SE 8.1 mph
(SE 13 kph)
- 10SM
19:30
Clear
88°F / 31°C 64°F / 18°C 46% 30.04 in
(1017 mb)
SE 10.4 mph
(SE 17 kph)
- 10SM
19:10
Clear
88°F / 31°C 64°F / 18°C 46% 30.04 in
(1017 mb)
SE 11.5 mph
(SE 19 kph)
- 10SM
18:50
Clear
90°F / 32°C 64°F / 18°C 43% 30.04 in
(1017 mb)
SSE 9.2 mph
(SSE 15 kph)
- 10SM
18:30
Clear
90°F / 32°C 63°F / 17°C 41% 30.04 in
(1017 mb)
SSE 9.2 mph
(SSE 15 kph)
- 10SM
18:10
Clear
90°F / 32°C 63°F / 17°C 41% 30.04 in
(1017 mb)
SE 5.8 mph
(SE 9 kph)
- 10SM
17:50
Clear
90°F / 32°C 64°F / 18°C 43% 30.04 in
(1017 mb)
SSE 8.1 mph
(SSE 13 kph)
- 10SM
17:30
Clear
91°F / 33°C 61°F / 16°C 36% 30.04 in
(1017 mb)
SE 6.9 mph
(SE 11 kph)
- 10SM
17:10
Clear
91°F / 33°C 64°F / 18°C 41% 30.01 in
(1016 mb)
SSE 6.9 mph
(SSE 11 kph)
- 10SM
16:50
Clear
91°F / 33°C 64°F / 18°C 41% 30.04 in
(1017 mb)
S 8.1 mph
(S 13 kph)
- 10SM
16:30
Clear
91°F / 33°C 64°F / 18°C 41% 30.04 in
(1017 mb)
SSE 6.9 mph
(SSE 11 kph)
- 10SM
16:10
Clear
91°F / 33°C 64°F / 18°C 41% 30.04 in
(1017 mb)
SSE 6.9 mph
(SSE 11 kph)
- 10SM
15:50
Partly Cloudy
88°F / 31°C 64°F / 18°C 46% 30.04 in
(1017 mb)
S 5.8 mph
(S 9 kph)
- 10SM
15:30
Partly Cloudy
90°F / 32°C 64°F / 18°C 43% 30.04 in
(1017 mb)
Calm - 10SM
15:10
Partly Cloudy
91°F / 33°C 64°F / 18°C 41% 30.06 in
(1018 mb)
SSE 9.2 mph
(SSE 15 kph)
- 10SM
14:50
Partly Cloudy
90°F / 32°C 66°F / 19°C 46% 30.06 in
(1018 mb)
S 8.1 mph
(S 13 kph)
- 10SM
14:30
Partly Cloudy
91°F / 33°C 66°F / 19°C 44% 30.06 in
(1018 mb)
SSE 8.1 mph
(SSE 13 kph)
- 10SM
14:10
Clear
90°F / 32°C 66°F / 19°C 46% 30.06 in
(1018 mb)
SSE 4.6 mph
(SSE 7 kph)
- 10SM
13:50
Clear
90°F / 32°C 66°F / 19°C 46% 30.06 in
(1018 mb)
S 9.2 mph
(S 15 kph)
- 10SM
13:30
Partly Cloudy
90°F / 32°C 66°F / 19°C 46% 30.09 in
(1019 mb)
SSE 8.1 mph
(SSE 13 kph)
- 10SM
13:10
Partly Cloudy
88°F / 31°C 68°F / 20°C 52% 30.09 in
(1019 mb)
S 10.4 mph
(S 17 kph)
- 10SM
12:50
Partly Cloudy
88°F / 31°C 66°F / 19°C 49% 30.09 in
(1019 mb)
S 5.8 mph
(S 9 kph)
- 10SM
12:30
Partly Cloudy
88°F / 31°C 68°F / 20°C 52% 30.09 in
(1019 mb)
SE 4.6 mph
(SE 7 kph)
- 10SM
12:10
Partly Cloudy
88°F / 31°C 70°F / 21°C 55% 30.12 in
(1020 mb)
SSE 6.9 mph
(SSE 11 kph)
- 10SM
11:50
Partly Cloudy
86°F / 30°C 68°F / 20°C 55% 30.12 in
(1020 mb)
Calm - 10SM
11:30
Partly Cloudy
88°F / 31°C 70°F / 21°C 55% 30.12 in
(1020 mb)
SSE 5.8 mph
(SSE 9 kph)
- 10SM
11:10
Partly Cloudy
84°F / 29°C 70°F / 21°C 62% 30.12 in
(1020 mb)
SSE 4.6 mph
(SSE 7 kph)
- 10SM
10:50
Partly Cloudy
84°F / 29°C 70°F / 21°C 62% 30.15 in
(1021 mb)
SSE 5.8 mph
(SSE 9 kph)
-
10:30
Mostly Cloudy
82°F / 28°C 70°F / 21°C 66% 30.15 in
(1021 mb)
SSE 8.1 mph
(SSE 13 kph)
-
10:10
Partly Cloudy
82°F / 28°C 72°F / 22°C 70% 30.15 in
(1021 mb)
SE 5.8 mph
(SE 9 kph)
- 10SM
09:50
Partly Cloudy
82°F / 28°C 72°F / 22°C 70% 30.15 in
(1021 mb)
Calm - 10SM
09:30
Clear
81°F / 27°C 72°F / 22°C 74% 30.15 in
(1021 mb)
SE 5.8 mph
(SE 9 kph)
- 10SM
09:10
Clear
81°F / 27°C 72°F / 22°C 74% 30.15 in
(1021 mb)
SSE 5.8 mph
(SSE 9 kph)
- 9SM
08:50
Clear
79°F / 26°C 72°F / 22°C 79% 30.15 in
(1021 mb)
SE 6.9 mph
(SE 11 kph)
- 9SM
08:30
Clear
77°F / 25°C 72°F / 22°C 83% 30.15 in
(1021 mb)
SSE 6.9 mph
(SSE 11 kph)
- 8SM
08:10
Clear
75°F / 24°C 72°F / 22°C 89% 30.12 in
(1020 mb)
SE 6.9 mph
(SE 11 kph)
- 8SM
07:50
Partly Cloudy
Fog And Mist
75°F / 24°C 72°F / 22°C 89% 30.12 in
(1020 mb)
SE 6.9 mph
(SE 11 kph)
- 5SM
07:30
Clear
Fog And Mist
73°F / 23°C 72°F / 22°C 94% 30.12 in
(1020 mb)
SE 8.1 mph
(SE 13 kph)
- 6SM
07:10
Clear
Fog And Mist
73°F / 23°C 70°F / 21°C 89% 30.12 in
(1020 mb)
SE 4.6 mph
(SE 7 kph)
- 6SM
06:50
Clear
Fog And Mist
72°F / 22°C 70°F / 21°C 94% 30.12 in
(1020 mb)
SE 3.5 mph
(SE 6 kph)
- 5SM
06:30
Clear
Fog And Mist
70°F / 21°C 68°F / 20°C 94% 30.12 in
(1020 mb)
Calm - 3SM
06:10
Clear
Fog And Mist
70°F / 21°C 68°F / 20°C 94% 30.12 in
(1020 mb)
SE 4.6 mph
(SE 7 kph)
- 3SM
05:50
Clear
Fog And Mist
70°F / 21°C 68°F / 20°C 94% 30.12 in
(1020 mb)
SE 4.6 mph
(SE 7 kph)
- 2 1/2SM
05:30
Clear
Fog And Mist
70°F / 21°C 68°F / 20°C 94% 30.12 in
(1020 mb)
SE 4.6 mph
(SE 7 kph)
- 6SM
05:10
Clear
70°F / 21°C 68°F / 20°C 94% 30.12 in
(1020 mb)
Calm - 8SM
04:50
Clear
70°F / 21°C 68°F / 20°C 94% 30.12 in
(1020 mb)
Calm - 8SM
04:30
Clear
70°F / 21°C 68°F / 20°C 94% 30.12 in
(1020 mb)
Calm - 9SM
04:10
Clear
70°F / 21°C 66°F / 19°C 88% 30.09 in
(1019 mb)
Calm - 10SM
03:50
Clear
72°F / 22°C 68°F / 20°C 88% 30.09 in
(1019 mb)
Calm - 9SM
03:30
Clear
72°F / 22°C 68°F / 20°C 88% 30.09 in
(1019 mb)
SSE 3.5 mph
(SSE 6 kph)
- 10SM
03:10
Clear
72°F / 22°C 68°F / 20°C 88% 30.09 in
(1019 mb)
SE 6.9 mph
(SE 11 kph)
- 10SM
02:50
Clear
72°F / 22°C 68°F / 20°C 88% 30.09 in
(1019 mb)
SE 4.6 mph
(SE 7 kph)
- 10SM
02:30
Clear
72°F / 22°C 68°F / 20°C 88% 30.09 in
(1019 mb)
SSE 5.8 mph
(SSE 9 kph)
- 10SM
02:10
Clear
72°F / 22°C 68°F / 20°C 88% 30.09 in
(1019 mb)
Calm - 10SM
01:50
Clear
72°F / 22°C 68°F / 20°C 88% 30.09 in
(1019 mb)
Calm - 10SM
01:30
Clear
72°F / 22°C 68°F / 20°C 88% 30.12 in
(1020 mb)
Calm - 10SM
01:10
Clear
72°F / 22°C 68°F / 20°C 88% 30.12 in
(1020 mb)
SE 4.6 mph
(SE 7 kph)
- 10SM
00:50
Clear
72°F / 22°C 68°F / 20°C 88% 30.12 in
(1020 mb)
SE 4.6 mph
(SE 7 kph)
- 10SM
00:30
Clear
72°F / 22°C 70°F / 21°C 94% 30.12 in
(1020 mb)
SE 5.8 mph
(SE 9 kph)
- 10SM
00:10
Clear
72°F / 22°C 70°F / 21°C 94% 30.12 in
(1020 mb)
SE 4.6 mph
(SE 7 kph)
- 10SM
Time Weather Temperature Dewpoint Humidity Pressure Winds Precip Visibility


Weather for websites

WeatherForYou.com, LLC is not responsible for any damages or problems caused by this service. Current weather conditions are obtained from the closest station including government and personal stations which may have varying degrees of accuracy. Weather forecasts are derived from the NOAA NDFD. Like all things, this site belongs to Jesus Christ... He just trusts me to maintain it. If you have any questions or comments email webmaster@weatherforyou.com

Copyright © 2014, WeatherForYou.com LLC. All rights reserved.